Wind_Speed
24 25 26 26 26 26 26 27 27 28 28 28 28 28 28 29 28 28 27 27 28 28 28 27 27 26 25 25 24 24 24 24 23 23 23 23 23 23 24 24 24 25 25
25 26 26 27 27 27 27 28 28 29 29 29 29 29 29 29 29 28 28 29 28 29 29 28 28 28 27 26 25 25 25 25 25 24 24 24 24 24 24 24 24 25 25
26 26 27 28 28 28 29 29 29 30 29 29 29 30 29 30 30 29 29 29 29 28 28 28 28 28 27 26 26 26 26 26 26 25 25 25 25 25 25 25 25 25 25
26 27 28 28 29 30 30 29 29 29 29 29 29 30 29 29 29 28 28 28 29 28 28 27 28 28 27 27 27 27 27 27 27 27 27 26 26 26 25 26 26 27 27
27 27 28 29 29 30 30 29 29 29 29 29 29 29 28 28 28 28 28 28 28 28 28 28 28 28 28 28 27 28 28 28 28 28 27 27 27 27 26 26 27 28 28
27 27 27 28 28 28 28 29 29 30 29 29 28 28 28 28 28 28 27 27 28 28 28 28 28 28 28 28 28 28 28 29 29 28 28 28 28 28 27 27 28 28 29
26 27 27 27 27 27 28 28 29 29 28 29 29 29 28 28 28 28 28 27 27 28 29 28 29 29 29 29 28 28 28 30 30 30 29 29 29 29 29 29 29 30 30
26 26 26 26 27 27 28 28 27 28 27 28 28 28 28 29 29 28 28 27 28 29 28 28 29 30 30 29 28 29 30 30 31 30 30 30 30 31 31 31 31 31 31
26 26 25 25 26 26 26 26 26 26 26 26 27 27 28 28 28 29 29 28 27 28 28 28 28 29 30 30 29 29 30 31 31 31 31 31 32 33 33 32 33 32 33
26 26 25 25 25 25 26 26 26 26 25 25 26 27 28 28 28 28 28 28 27 27 27 26 26 28 29 30 30 29 30 31 32 31 32 32 33 33 34 34 34 34 34
26 25 25 24 24 25 25 25 25 25 25 25 26 27 27 27 27 26 26 27 27 26 26 26 26 27 28 29 31 31 31 32 32 32 32 33 34 34 34 34 35 36 36
24 24 24 24 23 23 23 23 24 25 25 25 25 26 26 26 26 25 24 24 25 26 26 26 26 26 27 29 30 31 32 32 33 34 34 35 36 36 35 35 36 37 37
23 23 23 23 22 22 21 21 22 22 23 23 23 24 24 24 25 25 24 23 23 24 25 25 25 26 27 28 29 30 31 31 31 33 34 36 37 37 36 36 37 37 37
22 22 22 21 20 20 20 19 21 21 20 20 20 21 21 22 23 23 23 23 23 23 24 24 25 25 26 27 28 29 30 31 31 32 33 34 36 36 37 36 37 38 38
20 21 21 20 19 19 18 19 19 18 18 17 17 18 19 19 20 20 21 22 23 23 23 23 22 23 24 25 26 28 28 29 31 31 32 34 35 36 37 37 37 38 38
19 20 20 20 19 18 17 17 16 16 15 14 15 16 16 17 17 18 19 20 21 22 21 21 21 22 23 24 25 27 28 29 30 31 33 34 34 35 36 36 36 37 38
18 19 19 19 17 17 16 16 15 14 13 13 12 12 13 14 15 16 18 19 20 21 20 20 22 22 22 23 24 25 26 28 29 30 31 33 33 34 35 35 36 36 37
18 18 18 18 17 16 16 15 14 13 11 10 9 10 10 11 12 14 16 17 18 18 18 20 21 21 21 22 23 23 24 26 27 28 30 32 32 33 34 34 34 35 36
17 17 18 18 17 16 15 15 14 11 10 10 10 10 10 11 12 13 14 15 16 17 18 19 20 21 22 22 22 23 23 25 26 27 28 30 31 32 33 33 34 34 35
17 17 18 17 16 16 15 14 12 11 10 10 10 10 10 11 11 12 13 13 15 15 17 19 20 20 21 21 21 21 22 23 24 26 27 28 29 30 31 31 32 33 34
17 17 17 16 15 15 15 13 12 11 11 11 11 11 11 11 12 11 11 12 13 14 15 17 19 20 20 20 20 21 22 23 24 25 26 27 27 28 29 29 30 31 32
18 17 17 16 15 15 15 13 12 12 12 12 12 12 11 11 11 11 11 11 12 13 14 15 16 18 19 20 20 21 21 22 23 24 25 25 25 25 26 27 28 29 30
18 17 17 16 15 15 15 14 14 13 12 12 12 12 12 11 10 11 11 12 12 13 13 15 16 17 18 19 19 20 21 21 22 23 23 24 24 24 25 25 27 28 29
17 17 17 16 16 16 15 15 14 13 13 13 13 13 12 11 10 10 11 12 13 13 14 14 15 16 17 18 19 20 20 20 21 22 22 22 23 24 24 24 25 25 26
17 17 16 16 17 16 16 15 15 14 14 13 13 12 11 10 10 11 11 11 12 14 15 15 15 15 16 17 17 17 17 18 18 20 21 21 21 22 23 24 25 25 26
17 17 16 17 17 17 17 17 17 16 15 13 12 12 11 11 11 11 12 12 13 14 15 15 14 14 14 15 15 15 16 16 17 18 19 20 20 20 21 22 23 24 24
Wind_Direction
293 290 288 285 284 282 282 282 280 278 276 275 274 274 273 272 270 268 267 265 261 259 257 257 257 256 256 254 252 252 252 252 251 247 245 245 244 243 243 241 240 239 239
293 289 287 286 284 283 281 280 279 278 275 274 273 273 272 272 271 269 266 264 263 260 257 256 255 254 253 252 251 251 250 249 249 247 245 245 244 243 243 243 241 240 241
293 290 288 285 283 282 281 280 279 279 276 274 273 272 271 270 270 269 267 264 262 259 256 255 253 252 252 251 251 250 249 248 248 247 246 245 244 244 245 244 243 242 242
295 292 289 286 284 282 281 281 280 280 278 275 273 271 269 268 267 267 267 264 260 258 257 255 253 251 252 252 250 249 249 249 249 247 246 246 246 246 246 245 245 244 243
294 293 291 288 285 283 282 282 280 279 277 275 272 270 268 268 266 266 266 263 260 258 257 256 255 253 252 252 251 248 248 249 248 247 247 247 246 246 246 246 246 245 244
298 294 291 288 286 285 284 283 282 280 277 273 271 269 267 266 265 265 265 266 263 259 257 255 255 255 253 253 252 249 247 248 249 248 248 248 247 246 247 247 247 247 245
299 297 293 290 288 284 283 283 282 280 277 273 271 268 266 264 264 264 264 265 262 260 256 256 256 254 252 251 251 249 248 249 249 248 249 249 248 248 248 248 248 248 247
301 298 295 291 288 286 285 283 283 282 278 275 272 269 267 265 264 263 264 263 263 261 259 258 256 253 252 251 251 250 250 250 250 249 249 249 249 249 249 249 249 249 250
305 302 299 294 290 288 288 287 284 283 281 276 272 270 267 266 263 262 263 263 264 263 261 258 256 252 251 250 250 252 251 252 252 251 250 250 250 250 251 251 250 249 251
307 304 301 298 294 290 290 289 286 284 280 277 273 270 268 267 264 263 261 262 260 262 262 260 257 254 252 251 251 253 254 254 254 253 251 251 252 252 252 252 252 251 251
309 307 306 304 300 295 293 290 286 285 281 277 274 272 270 268 265 261 261 261 260 262 262 261 259 257 255 253 252 253 255 255 253 253 252 253 253 252 252 253 253 253 252
312 310 309 308 305 301 296 292 287 285 281 278 275 273 271 268 264 260 260 260 260 261 263 263 260 258 255 255 256 256 256 255 254 253 253 253 253 252 253 254 254 254 254
314 313 311 309 307 304 300 296 291 288 283 280 278 275 270 268 264 261 259 260 258 259 262 263 263 259 257 258 257 256 256 256 256 255 254 254 253 253 254 255 255 255 256
316 317 317 314 312 308 305 300 297 292 288 284 280 275 271 266 265 263 261 259 257 258 262 264 264 262 261 259 258 258 259 258 256 256 255 255 254 254 254 255 256 256 256
320 323 324 320 316 312 309 307 305 300 295 289 284 280 274 269 266 263 262 261 258 259 262 263 263 263 265 264 261 259 259 258 256 256 256 256 256 256 256 256 257 257 256
323 327 329 327 322 318 316 315 311 308 301 294 290 285 278 272 267 264 263 263 259 260 261 263 267 268 270 268 265 262 260 259 257 257 258 258 258 257 258 258 258 258 257
324 327 330 333 331 328 324 322 317 313 309 303 296 289 284 278 274 271 267 266 263 263 265 268 271 272 273 271 267 264 262 260 259 258 258 259 260 260 260 259 259 259 257
328 330 334 335 333 332 331 331 326 322 316 311 304 302 293 286 282 281 277 270 266 266 266 270 273 273 273 272 269 266 263 262 261 260 260 261 261 261 261 260 259 258 257
335 335 334 335 336 336 335 335 333 334 330 324 318 310 302 298 292 287 284 277 272 271 270 270 274 274 274 274 272 269 266 264 263 263 263 263 263 263 262 261 259 259 257
338 338 336 335 338 340 336 334 337 340 339 333 326 320 316 314 305 295 287 282 279 276 274 274 276 278 277 277 274 272 268 267 267 266 266 266 267 267 265 263 260 259 257
345 344 342 340 340 340 340 342 342 339 335 331 326 321 318 316 310 307 301 291 286 282 282 280 279 280 281 280 277 275 270 269 270 269 269 269 269 268 266 263 261 260 258
349 347 345 343 344 344 343 341 341 336 333 330 327 323 321 317 312 310 309 307 303 297 296 291 288 287 285 283 281 278 276 274 272 272 273 272 270 268 267 265 263 262 261
348 347 348 349 349 347 345 343 343 339 336 333 327 323 321 317 313 313 313 315 313 309 308 302 298 294 288 285 285 283 282 280 278 277 275 274 272 270 269 268 267 266 264
351 352 354 353 350 348 348 347 344 342 339 337 334 332 327 323 321 321 320 319 321 320 317 311 307 301 294 290 288 287 285 282 281 280 279 278 275 272 270 270 271 269 266
352 353 355 355 353 352 351 348 345 341 338 338 339 339 338 336 331 330 328 327 325 326 325 320 317 310 303 299 296 293 292 289 287 286 283 282 279 277 277 276 275 273 269
354 354 353 352 352 352 351 349 347 343 341 341 342 342 340 339 335 334 335 333 329 328 328 327 324 320 315 311 307 303 300 297 295 292 291 289 284 281 280 279 278 277 274
Height
5822 5820 5819 5818 5816 5815 5814 5813 5812 5811 5810 5810 5810 5810 5809 5809 5810 5810 5811 5812 5813 5814 5815 5816 5817 5818 5819 5820 5822 5823 5825 5827 5828 5830 5832 5834 5836 5838 5840 5842 5845 5847 5850
5816 5814 5813 5811 5810 5809 5807 5806 5805 5804 5803 5803 5803 5803 5803 5802 5803 5803 5804 5805 5805 5807 5808 5809 5810 5811 5812 5814 5815 5817 5819 5821 5823 5824 5826 5828 5830 5833 5835 5837 5839 5842 5844
5809 5808 5806 5804 5803 5802 5800 5799 5798 5796 5796 5795 5795 5795 5795 5795 5795 5796 5796 5797 5798 5799 5800 5802 5803 5804 5806 5807 5809 5811 5812 5814 5816 5818 5820 5822 5824 5827 5829 5831 5834 5836 5838
5803 5801 5799 5797 5795 5794 5793 5791 5790 5789 5788 5788 5787 5787 5787 5788 5788 5788 5788 5789 5790 5792 5793 5794 5796 5797 5799 5800 5802 5804 5806 5808 5810 5812 5814 5816 5818 5821 5823 5825 5828 5830 5832
5796 5794 5792 5789 5788 5786 5785 5783 5782 5781 5780 5780 5780 5780 5780 5780 5780 5781 5781 5782 5783 5784 5786 5787 5788 5790 5792 5794 5795 5797 5799 5801 5804 5806 5808 5810 5812 5814 5817 5819 5821 5824 5826
5790 5787 5785 5782 5780 5778 5777 5775 5774 5773 5772 5772 5772 5772 5772 5772 5773 5774 5774 5775 5775 5777 5778 5780 5781 5783 5785 5787 5788 5790 5792 5795 5797 5799 5801 5803 5805 5808 5810 5812 5814 5817 5819
5782 5780 5777 5775 5772 5771 5769 5767 5766 5765 5764 5764 5764 5764 5764 5764 5766 5766 5767 5767 5768 5769 5770 5772 5773 5775 5777 5779 5781 5783 5785 5787 5790 5792 5794 5796 5798 5801 5803 5805 5807 5809 5811
5775 5773 5770 5767 5765 5764 5762 5759 5758 5757 5756 5755 5756 5756 5757 5758 5757 5758 5759 5760 5761 5761 5762 5764 5765 5767 5769 5771 5773 5775 5778 5780 5782 5784 5786 5789 5791 5793 5795 5797 5799 5801 5803
5769 5766 5763 5761 5758 5756 5754 5752 5750 5749 5749 5748 5748 5748 5749 5750 5750 5750 5751 5752 5753 5753 5755 5756 5757 5759 5761 5763 5765 5768 5770 5772 5774 5776 5778 5781 5783 5785 5787 5789 5791 5793 5795
5763 5760 5757 5754 5751 5749 5747 5745 5743 5742 5741 5740 5740 5740 5740 5741 5741 5743 5743 5744 5745 5746 5747 5748 5750 5751 5753 5755 5758 5760 5762 5764 5766 5768 5770 5772 5774 5776 5778 5780 5782 5784 5786
5758 5754 5751 5748 5745 5742 5740 5738 5736 5735 5733 5733 5732 5732 5732 5732 5733 5734 5735 5736 5737 5738 5740 5741 5742 5743 5745 5747 5750 5752 5753 5755 5757 5759 5761 5763 5765 5767 5769 5771 5772 5774 5776
5752 5749 5745 5742 5739 5736 5733 5730 5729 5727 5726 5725 5724 5724 5724 5724 5725 5726 5727 5728 5729 5731 5732 5733 5734 5736 5737 5739 5741 5743 5744 5746 5747 5749 5751 5753 5755 5757 5759 5761 5763 5764 5766
5747 5743 5740 5736 5732 5729 5726 5724 5722 5720 5719 5718 5717 5716 5716 5717 5718 5719 5720 5721 5723 5725 5725 5726 5727 5728 5729 5731 5733 5734 5735 5736 5738 5740 5742 5743 5745 5747 5749 5751 5753 5754 5756
5742 5739 5735 5731 5727 5723 5720 5718 5716 5714 5712 5711 5710 5710 5709 5710 5711 5712 5713 5715 5716 5718 5718 5719 5720 5720 5721 5723 5724 5725 5726 5727 5729 5731 5732 5733 5735 5737 5739 5740 5742 5744 5745
5737 5734 5730 5726 5722 5719 5716 5713 5711 5708 5706 5705 5704 5704 5703 5704 5705 5706 5706 5708 5710 5711 5712 5712 5713 5713 5714 5715 5716 5716 5717 5718 5720 5721 5723 5724 5725 5727 5728 5729 5731 5732 5734
5733 5730 5727 5723 5719 5715 5712 5709 5707 5704 5702 5701 5700 5699 5699 5699 5699 5700 5701 5701 5702 5704 5705 5706 5706 5706 5706 5707 5707 5708 5709 5709 5711 5712 5713 5714 5715 5716 5718 5719 5720 5721 5722
5730 5727 5724 5720 5716 5713 5709 5706 5704 5701 5699 5697 5696 5695 5694 5694 5694 5695 5695 5695 5696 5697 5698 5699 5699 5699 5699 5699 5699 5699 5700 5701 5702 5703 5704 5705 5705 5706 5707 5708 5708 5709 5710
5727 5725 5721 5717 5714 5710 5707 5704 5700 5698 5696 5694 5693 5692 5691 5690 5690 5690 5689 5689 5690 5691 5692 5692 5692 5692 5692 5691 5691 5691 5692 5693 5693 5694 5695 5695 5696 5696 5696 5697 5697 5698 5699
5725 5722 5719 5715 5712 5708 5705 5701 5698 5696 5693 5692 5690 5689 5688 5687 5686 5685 5685 5685 5685 5685 5686 5686 5686 5685 5685 5684 5684 5684 5684 5684 5685 5685 5686 5686 5686 5686 5686 5686 5687 5688 5689
5723 5720 5716 5713 5710 5706 5703 5700 5697 5694 5692 5690 5688 5687 5685 5684 5682 5681 5680 5680 5679 5679 5680 5680 5679 5678 5678 5677 5676 5676 5677 5677 5677 5677 5677 5677 5677 5676 5676 5676 5677 5678 5679
5721 5718 5715 5711 5708 5705 5701 5698 5695 5693 5691 5689 5686 5684 5682 5680 5679 5678 5676 5675 5675 5674 5674 5673 5673 5672 5671 5670 5670 5670 5670 5670 5669 5669 5669 5668 5668 5667 5667 5667 5667 5667 5668
5720 5717 5713 5710 5707 5704 5700 5697 5694 5692 5689 5687 5684 5682 5679 5677 5676 5675 5673 5672 5671 5670 5669 5668 5667 5666 5665 5664 5664 5663 5663 5663 5663 5662 5661 5660 5659 5658 5658 5658 5658 5658 5659
5719 5716 5712 5709 5706 5703 5699 5696 5693 5690 5687 5685 5682 5680 5677 5675 5674 5672 5671 5669 5668 5666 5665 5664 5662 5661 5659 5659 5658 5658 5657 5655 5655 5654 5653 5652 5651 5650 5650 5650 5649 5649 5650
5718 5715 5712 5708 5705 5702 5698 5695 5692 5689 5686 5683 5680 5678 5675 5673 5672 5670 5669 5667 5665 5663 5661 5660 5658 5656 5654 5653 5652 5651 5650 5649 5648 5646 5645 5645 5643 5643 5642 5641 5641 5641 5641
5718 5715 5712 5708 5705 5701 5698 5694 5691 5687 5684 5681 5678 5676 5674 5671 5670 5668 5666 5665 5663 5661 5658 5656 5654 5652 5649 5648 5646 5645 5644 5643 5642 5640 5639 5638 5637 5636 5635 5634 5633 5633 5633
5718 5714 5711 5708 5704 5701 5697 5693 5689 5686 5682 5679 5677 5674 5672 5670 5668 5666 5664 5663 5661 5659 5656 5653 5651 5648 5646 5643 5642 5641 5639 5638 5637 5635 5633 5632 5631 5629 5629 5627 5626 5625 5625